Home > Weather > Nantes > Past weeks

Flag for France Weather for the Past 2 Weeks in Nantes, Pays de la Loire, France

Now
52 °F

Passing clouds.


Feels Like: 51 °F
Forecast: 55 / 68 °F
Wind: 3 mph from Southeast

Location: Nantes Airport

Current Time: May 6, 2016 at 6:08:52 AM

Latest Report: May 6, 2016 at 5:30 AM


Visibility: N/A

Pressure: 29.77 "Hg

Humidity: 72%

Dew Point: 43 °F

Location of NantesLocation

Historic Weather in Nantes — Graph

°F

Nantes Temperature Yesterday

Maximum temperature yesterday: 75 °F (at 4:30 PM)
Minimum temperature yesterday: 46 °F (at 7:00 AM)
Average temperature yesterday: 62 °F

High & Low Weather Summary for the Past Weeks

 TemperatureHumidityPressure
High75 °F (May 5, 4:30 PM)100% (Apr 30, 3:00 AM)30.42 "Hg (Apr 30, 3:00 AM)
Low30 °F (Apr 27, 7:00 AM)25% (May 5, 5:00 PM)29.80 "Hg (May 6, 2:30 AM)
Average52 °F69%30.11 "Hg
* Reported Apr 21 5:00 AM — May 6 5:00 AM, Nantes, Weather by CustomWeather, © 2016

Note: Actual official high and low records may vary slightly from our data, if they occured in-between our weather recording intervals... More about our weather records

Advertising

Nantes Weather History for the Previous 24 Hours

Scroll right to see more
 ConditionsComfort  
Time TempWeatherWind HumidityBarometerVisibility
5:00 AM
Fri, May 6
52 °FClear.5 mph67%29.80 "Hg10 mi
4:30 AM52 °FPassing clouds.3 mph72%29.80 "HgN/A
4:00 AM54 °FClear.6 mph67%29.80 "Hg10 mi
3:30 AM55 °FClear.6 mph63%29.80 "Hg10 mi
3:00 AM57 °FClear.6 mph59%29.80 "Hg10 mi
2:30 AM57 °FPassing clouds.5 mph59%29.80 "HgN/A
2:00 AM57 °FPassing clouds.3 mph59%29.83 "HgN/A
1:30 AM59 °FClear.5 mph55%29.83 "Hg10 mi
1:00 AM59 °FClear.5 mph55%29.83 "Hg10 mi
12:30 AM61 °FClear.6 mph52%29.83 "Hg10 mi
12:00 AM63 °FPassing clouds.5 mph49%29.83 "HgN/A
11:30 PM
Thu, May 5
63 °FPassing clouds.5 mph45%29.83 "HgN/A
11:00 PM63 °FPassing clouds.6 mph42%29.83 "HgN/A
10:30 PM64 °FClear.8 mph40%29.83 "Hg10 mi
10:00 PM66 °FSunny.9 mph37%29.83 "Hg10 mi
9:30 PM68 °FSunny.7 mph35%29.83 "Hg10 mi
9:00 PM70 °FSunny.6 mph33%29.83 "Hg10 mi
8:30 PM72 °FSunny.9 mph31%29.83 "Hg10 mi
8:00 PM73 °FSunny.10 mph27%29.83 "Hg10 mi
7:30 PM73 °FPassing clouds.12 mph29%29.83 "HgN/A
7:00 PM73 °FSunny.12 mph29%29.83 "Hg10 mi
6:30 PM75 °FPassing clouds.12 mph27%29.86 "HgN/A
6:00 PM75 °FPassing clouds.13 mph27%29.86 "HgN/A
5:30 PM75 °FSunny.12 mph29%29.86 "Hg10 mi
5:00 PM75 °FPassing clouds.10 mph25%29.86 "HgN/A
4:30 PM75 °FPassing clouds.12 mph29%29.89 "HgN/A
4:00 PM73 °FPassing clouds.12 mph31%29.89 "HgN/A
3:30 PM73 °FPassing clouds.15 mph31%29.89 "HgN/A
3:00 PM72 °FPassing clouds.15 mph31%29.89 "HgN/A
2:30 PM72 °FPassing clouds.15 mph36%29.92 "HgN/A
2:00 PM72 °FPassing clouds.15 mph33%29.92 "HgN/A
1:30 PM70 °FPassing clouds.16 mph35%29.95 "HgN/A
1:00 PM68 °FPassing clouds.15 mph38%29.95 "HgN/A
12:30 PM68 °FPassing clouds.14 mph40%29.95 "HgN/A
12:00 PM66 °FPassing clouds.14 mph40%29.95 "HgN/A
11:30 AM64 °FSunny.13 mph43%29.95 "Hg10 mi
11:00 AM63 °FSunny.12 mph49%29.98 "Hg10 mi
10:30 AM61 °FPassing clouds.13 mph48%29.98 "HgN/A
10:00 AM59 °FPassing clouds.13 mph51%29.98 "HgN/A
9:30 AM57 °FPassing clouds.9 mph51%30.01 "HgN/A
9:00 AM55 °FSunny.10 mph55%30.01 "Hg10 mi
8:30 AM52 °FPassing clouds.9 mph58%30.01 "HgN/A
8:00 AM50 °FSunny.9 mph67%30.01 "Hg10 mi
7:30 AM48 °FClear.8 mph66%30.01 "Hg10 mi
7:00 AM46 °FPassing clouds.5 mph71%30.01 "HgN/A
6:30 AM48 °FClear.8 mph66%30.01 "Hg10 mi
6:00 AM48 °FClear.7 mph66%30.01 "Hg10 mi
Weather by CustomWeather, © 2016

See weather overviewHow to use our weather pages